When you browse on this site, cookies collect data to enhance your experience and personalize the content and advertising you see.
Visit our Privacy Policy to learn more. By continuing to use the site, you agree to this use of cookies and data.

Meteo pe oră la Fakuoka

Astăzi, 4 Iulie, Sâmbătă

Timp Temperatura Precipitaţii Vânt Presiune Umiditate
00:00 +24°C° 1 mm 1 m/s 734 mmHg 92%
01:00 +25°C° 0.6 mm 2 m/s 734 mmHg 93%
02:00 +25°C° 0.6 mm 2 m/s 733 mmHg 93%
03:00 +25°C° 0 mm 1 m/s 733 mmHg 91%
04:00 +24°C° 1.1 mm 1 m/s 733 mmHg 91%
05:00 +24°C° 1.1 mm 1 m/s 733 mmHg 92%
06:00 +24°C° 1.1 mm 1 m/s 733 mmHg 92%
07:00 +25°C° 0 mm 1 m/s 734 mmHg 88%
08:00 +25°C° 0 mm 2 m/s 734 mmHg 83%
09:00 +26°C° 0 mm 2 m/s 734 mmHg 71%
10:00 +27°C° 0 mm 2 m/s 734 mmHg 68%
11:00 +28°C° 0 mm 2 m/s 734 mmHg 65%
12:00 +28°C° 0 mm 2 m/s 734 mmHg 61%
13:00 +28°C° 0 mm 3 m/s 734 mmHg 63%
14:00 +28°C° 0 mm 3 m/s 734 mmHg 64%
15:00 +28°C° 0 mm 3 m/s 733 mmHg 65%
16:00 +27°C° 0 mm 3 m/s 733 mmHg 68%
17:00 +27°C° 0 mm 2 m/s 734 mmHg 71%
18:00 +26°C° 0 mm 2 m/s 734 mmHg 73%
19:00 +25°C° 0 mm 2 m/s 734 mmHg 75%
20:00 +24°C° 0 mm 2 m/s 734 mmHg 78%
21:00 +24°C° 0 mm 2 m/s 735 mmHg 80%
22:00 +23°C° 0 mm 1 m/s 735 mmHg 80%
23:00 +23°C° 0 mm 1 m/s 735 mmHg 80%

Mâine, 5 Iulie, Duminică

Timp Temperatura Precipitaţii Vânt Presiune Umiditate
00:00 +23°C° 0 mm 1 m/s 735 mmHg 80%
01:00 +23°C° 0.7 mm 1 m/s 735 mmHg 82%
02:00 +23°C° 0.7 mm 1 m/s 734 mmHg 84%
03:00 +23°C° 0.7 mm 1 m/s 734 mmHg 87%
04:00 +23°C° 0.6 mm 1 m/s 734 mmHg 87%
05:00 +23°C° 0.6 mm 1 m/s 734 mmHg 88%
06:00 +21°C° 0.6 mm 0 m/s 734 mmHg 89%
07:00 +23°C° 0.3 mm 1 m/s 734 mmHg 87%
08:00 +24°C° 0.3 mm 1 m/s 734 mmHg 85%
09:00 +24°C° 0.3 mm 2 m/s 735 mmHg 83%
10:00 +25°C° 0.1 mm 2 m/s 735 mmHg 78%
11:00 +26°C° 0.1 mm 2 m/s 734 mmHg 73%
12:00 +27°C° 0.1 mm 2 m/s 734 mmHg 68%
13:00 +27°C° 0 mm 2 m/s 734 mmHg 68%
14:00 +27°C° 0 mm 2 m/s 734 mmHg 69%
15:00 +27°C° 0 mm 1 m/s 733 mmHg 70%
16:00 +26°C° 0.1 mm 1 m/s 733 mmHg 74%
17:00 +25°C° 0.1 mm 1 m/s 733 mmHg 78%
18:00 +25°C° 0.1 mm 1 m/s 733 mmHg 82%
19:00 +25°C° 0.4 mm 1 m/s 733 mmHg 84%
20:00 +24°C° 0.4 mm 1 m/s 733 mmHg 86%
21:00 +24°C° 0.4 mm 1 m/s 733 mmHg 88%
22:00 +24°C° 0.5 mm 1 m/s 733 mmHg 89%
23:00 +24°C° 0.5 mm 1 m/s 733 mmHg 90%

Poimâine, 6 Iulie, Luni

Timp Temperatura Precipitaţii Vânt Presiune Umiditate
00:00 +24°C° 0.5 mm 1 m/s 733 mmHg 91%
01:00 +24°C° 0.3 mm 1 m/s 733 mmHg 91%
02:00 +24°C° 0.3 mm 1 m/s 732 mmHg 92%
03:00 +24°C° 0.3 mm 1 m/s 732 mmHg 92%
04:00 +24°C° 0.2 mm 1 m/s 732 mmHg 92%
05:00 +24°C° 0.2 mm 1 m/s 732 mmHg 92%
06:00 +25°C° 0.2 mm 1 m/s 732 mmHg 92%
07:00 +25°C° 0.1 mm 1 m/s 733 mmHg 89%
08:00 +26°C° 0.1 mm 1 m/s 733 mmHg 86%
09:00 +27°C° 0.1 mm 2 m/s 733 mmHg 83%
10:00 +27°C° 1 mm 2 m/s 733 mmHg 83%
11:00 +27°C° 1 mm 3 m/s 733 mmHg 83%
12:00 +27°C° 1 mm 4 m/s 733 mmHg 83%
13:00 +26°C° 2 mm 4 m/s 733 mmHg 84%
14:00 +26°C° 2 mm 5 m/s 733 mmHg 86%
15:00 +24°C° 2 mm 6 m/s 732 mmHg 87%
16:00 +25°C° 2.7 mm 5 m/s 732 mmHg 88%
17:00 +25°C° 2.7 mm 5 m/s 732 mmHg 90%
18:00 +25°C° 2.7 mm 5 m/s 732 mmHg 91%
19:00 +25°C° 2.2 mm 5 m/s 733 mmHg 92%
20:00 +25°C° 2.2 mm 4 m/s 733 mmHg 92%
21:00 +25°C° 2.2 mm 4 m/s 733 mmHg 92%
22:00 +25°C° 1.1 mm 3 m/s 733 mmHg 92%
23:00 +25°C° 1.1 mm 3 m/s 733 mmHg 93%

7 Iulie, Marţi

Timp Temperatura Precipitaţii Vânt Presiune Umiditate
00:00 +24°C° 1.1 mm 2 m/s 733 mmHg 93%
01:00 +25°C° 0.7 mm 2 m/s 733 mmHg 94%
02:00 +25°C° 0.7 mm 1 m/s 733 mmHg 94%
03:00 +25°C° 0.7 mm 1 m/s 733 mmHg 94%
04:00 +25°C° 0.4 mm 1 m/s 733 mmHg 94%
05:00 +25°C° 0.4 mm 1 m/s 733 mmHg 94%
06:00 +25°C° 0.4 mm 1 m/s 733 mmHg 94%
07:00 +25°C° 9 mm 1 m/s 733 mmHg 95%
08:00 +25°C° 9 mm 1 m/s 734 mmHg 96%
09:00 +24°C° 9 mm 1 m/s 734 mmHg 97%
10:00 +25°C° 3.5 mm 2 m/s 734 mmHg 94%
11:00 +25°C° 3.5 mm 2 m/s 734 mmHg 92%
12:00 +26°C° 3.5 mm 2 m/s 734 mmHg 90%
13:00 +25°C° 3.7 mm 2 m/s 734 mmHg 92%
14:00 +25°C° 3.7 mm 2 m/s 733 mmHg 93%
15:00 +25°C° 3.7 mm 2 m/s 733 mmHg 95%
16:00 +25°C° 2.1 mm 2 m/s 733 mmHg 93%
17:00 +25°C° 2.1 mm 2 m/s 733 mmHg 92%
18:00 +25°C° 2.1 mm 3 m/s 734 mmHg 90%
19:00 +25°C° 1.6 mm 2 m/s 734 mmHg 91%
20:00 +25°C° 1.6 mm 2 m/s 734 mmHg 92%
21:00 +24°C° 1.6 mm 2 m/s 735 mmHg 93%
22:00 +24°C° 3 mm 2 m/s 735 mmHg 91%
23:00 +24°C° 3 mm 2 m/s 735 mmHg 90%

8 Iulie, Miercuri

Timp Temperatura Precipitaţii Vânt Presiune Umiditate
00:00 +24°C° 3 mm 2 m/s 735 mmHg 89%
01:00 +24°C° 0.7 mm 3 m/s 734 mmHg 89%
02:00 +24°C° 0.7 mm 3 m/s 734 mmHg 89%
03:00 +24°C° 0.7 mm 3 m/s 734 mmHg 90%
04:00 +24°C° 0.2 mm 3 m/s 734 mmHg 90%
05:00 +24°C° 0.2 mm 3 m/s 734 mmHg 89%
06:00 +24°C° 0.2 mm 2 m/s 734 mmHg 89%
07:00 +24°C° 1 mm 2 m/s 734 mmHg 89%
08:00 +24°C° 1 mm 3 m/s 734 mmHg 90%
09:00 +24°C° 1 mm 3 m/s 733 mmHg 90%
10:00 +24°C° 0.6 mm 2 m/s 733 mmHg 89%
11:00 +24°C° 0.6 mm 2 m/s 733 mmHg 89%
12:00 +25°C° 0.6 mm 2 m/s 733 mmHg 88%
13:00 +24°C° 1.9 mm 2 m/s 733 mmHg 90%
14:00 +24°C° 1.9 mm 2 m/s 732 mmHg 91%
15:00 +24°C° 1.9 mm 2 m/s 732 mmHg 93%
16:00 +24°C° 1.4 mm 2 m/s 732 mmHg 93%
17:00 +24°C° 1.4 mm 2 m/s 731 mmHg 93%
18:00 +24°C° 1.4 mm 2 m/s 731 mmHg 93%
19:00 +24°C° 0.6 mm 2 m/s 731 mmHg 93%
20:00 +24°C° 0.6 mm 1 m/s 731 mmHg 93%
21:00 +24°C° 0.6 mm 1 m/s 731 mmHg 93%
22:00 +24°C° 0.4 mm 1 m/s 731 mmHg 93%
23:00 +24°C° 0.4 mm 1 m/s 731 mmHg 93%

9 Iulie, Joi

Timp Temperatura Precipitaţii Vânt Presiune Umiditate
00:00 +22°C° 0.4 mm 0 m/s 731 mmHg 92%
01:00 +22°C° 0.2 mm 0 m/s 731 mmHg 92%
02:00 +22°C° 0.2 mm 0 m/s 730 mmHg 92%
03:00 +24°C° 0.2 mm 1 m/s 730 mmHg 92%
04:00 +24°C° 0.2 mm 1 m/s 731 mmHg 92%
05:00 +24°C° 0.2 mm 1 m/s 731 mmHg 92%
06:00 +24°C° 0.2 mm 1 m/s 731 mmHg 92%
07:00 +25°C° 0.4 mm 1 m/s 731 mmHg 91%
08:00 +25°C° 0.4 mm 1 m/s 731 mmHg 89%
09:00 +25°C° 0.4 mm 1 m/s 732 mmHg 88%
10:00 +26°C° 0.5 mm 1 m/s 732 mmHg 85%
11:00 +27°C° 0.5 mm 1 m/s 732 mmHg 81%
12:00 +28°C° 0.5 mm 1 m/s 732 mmHg 78%
13:00 +28°C° 1.2 mm 1 m/s 732 mmHg 75%
14:00 +29°C° 1.2 mm 1 m/s 732 mmHg 73%
15:00 +29°C° 1.2 mm 1 m/s 732 mmHg 71%
16:00 +29°C° 1.3 mm 2 m/s 732 mmHg 73%
17:00 +28°C° 1.3 mm 2 m/s 732 mmHg 76%
18:00 +27°C° 1.3 mm 2 m/s 732 mmHg 79%
19:00 +27°C° 0.9 mm 2 m/s 733 mmHg 82%
20:00 +26°C° 0.9 mm 1 m/s 733 mmHg 85%
21:00 +25°C° 0.9 mm 1 m/s 734 mmHg 88%
22:00 +25°C° 0.7 mm 1 m/s 734 mmHg 88%
23:00 +25°C° 0.7 mm 1 m/s 734 mmHg 89%
Arată mai mult